Voltar ao catálogo

STARLINK-31185

AtivoComunicaçõesVLEO
NORAD 58788·PAYLOAD·🇺🇸 United States

Lançado Jan 15, 2024 de Cape Canaveral Space Force Station

Loading…

Próximas Passagens (próximas 24 horas)

TLE

AtualizadoSource: CelesTrak SupGP

Época: Sep 15, 2026, 02:34 UTC

1 58788C 24012B   26258.10743056 -.00012402  00000+0 -44927-3 0  2581
2 58788  42.9995 175.8985 0001331 273.2518 335.3146 15.27579624    19

Acompanhe STARLINK-31185 em tempo real com AllMySat

Download on the App Store